Location: Six Mile Lake
(44.9000°N, 79.7170°W)
Time: 15:28:25
(UTC-04:00)

JY1SAT - Pass Details

Date: 01 July 2022
Orbit: 564 x 586 km, 97.6° (Epoch: 08 August)

Event Time Altitude Azimuth Distance (km) Brightness Sun altitude
Exits shadow 22:39:18 17° 161° (SSE) 1,487 ? -12.5°
Maximum altitude 22:42:24 81° 76° (ENE) 602 ? -12.8°
Drops below altitude 10° 22:46:35 10° 349° (N) 1,922 ? -13.3°
Sets 22:48:45 0° 349° (N) 2,825 ? -13.5°
